Index of /20260505/WXO-DD/model_rdps/10km/18/039
Name Last modified Size Description
Parent Directory -
20260505T18Z_MSC_RDPS_AbsoluteVorticity_IsbL-0250_RLatLon0.09_PT039H.grib2 2026-05-05 20:51 590K
20260505T18Z_MSC_RDPS_AbsoluteVorticity_IsbL-0500_RLatLon0.09_PT039H.grib2 2026-05-05 20:51 558K
20260505T18Z_MSC_RDPS_AbsoluteVorticity_IsbL-0700_RLatLon0.09_PT039H.grib2 2026-05-05 20:51 608K
20260505T18Z_MSC_RDPS_AbsoluteVorticity_IsbL-0850_RLatLon0.09_PT039H.grib2 2026-05-05 20:51 785K
20260505T18Z_MSC_RDPS_AirTemp_AGL-120m_RLatLon0.09_PT039H.grib2 2026-05-05 20:51 379K
20260505T18Z_MSC_RDPS_AirTemp_AGL-2m_RLatLon0.09_PT039H.grib2 2026-05-05 20:51 628K
20260505T18Z_MSC_RDPS_AirTemp_AGL-40m_RLatLon0.09_PT039H.grib2 2026-05-05 20:51 396K
20260505T18Z_MSC_RDPS_AirTemp_AGL-80m_RLatLon0.09_PT039H.grib2 2026-05-05 20:51 386K
20260505T18Z_MSC_RDPS_AirTemp_IsbL-0001_RLatLon0.09_PT039H.grib2 2026-05-05 20:51 305K
20260505T18Z_MSC_RDPS_AirTemp_IsbL-0005_RLatLon0.09_PT039H.grib2 2026-05-05 20:51 289K
20260505T18Z_MSC_RDPS_AirTemp_IsbL-0010_RLatLon0.09_PT039H.grib2 2026-05-05 20:51 392K
20260505T18Z_MSC_RDPS_AirTemp_IsbL-0020_RLatLon0.09_PT039H.grib2 2026-05-05 20:51 322K
20260505T18Z_MSC_RDPS_AirTemp_IsbL-0030_RLatLon0.09_PT039H.grib2 2026-05-05 20:51 336K
20260505T18Z_MSC_RDPS_AirTemp_IsbL-0050_RLatLon0.09_PT039H.grib2 2026-05-05 20:51 310K
20260505T18Z_MSC_RDPS_AirTemp_IsbL-0100_RLatLon0.09_PT039H.grib2 2026-05-05 20:51 419K
20260505T18Z_MSC_RDPS_AirTemp_IsbL-0150_RLatLon0.09_PT039H.grib2 2026-05-05 20:51 405K
20260505T18Z_MSC_RDPS_AirTemp_IsbL-0175_RLatLon0.09_PT039H.grib2 2026-05-05 20:51 399K
20260505T18Z_MSC_RDPS_AirTemp_IsbL-0200_RLatLon0.09_PT039H.grib2 2026-05-05 20:51 408K
20260505T18Z_MSC_RDPS_AirTemp_IsbL-0225_RLatLon0.09_PT039H.grib2 2026-05-05 20:51 410K
20260505T18Z_MSC_RDPS_AirTemp_IsbL-0250_RLatLon0.09_PT039H.grib2 2026-05-05 20:51 417K
20260505T18Z_MSC_RDPS_AirTemp_IsbL-0275_RLatLon0.09_PT039H.grib2 2026-05-05 20:51 397K
20260505T18Z_MSC_RDPS_AirTemp_IsbL-0300_RLatLon0.09_PT039H.grib2 2026-05-05 20:51 405K
20260505T18Z_MSC_RDPS_AirTemp_IsbL-0350_RLatLon0.09_PT039H.grib2 2026-05-05 20:51 419K
20260505T18Z_MSC_RDPS_AirTemp_IsbL-0400_RLatLon0.09_PT039H.grib2 2026-05-05 20:51 422K
20260505T18Z_MSC_RDPS_AirTemp_IsbL-0450_RLatLon0.09_PT039H.grib2 2026-05-05 20:51 430K
20260505T18Z_MSC_RDPS_AirTemp_IsbL-0500_RLatLon0.09_PT039H.grib2 2026-05-05 20:51 440K
20260505T18Z_MSC_RDPS_AirTemp_IsbL-0550_RLatLon0.09_PT039H.grib2 2026-05-05 20:51 420K
20260505T18Z_MSC_RDPS_AirTemp_IsbL-0600_RLatLon0.09_PT039H.grib2 2026-05-05 20:51 436K
20260505T18Z_MSC_RDPS_AirTemp_IsbL-0650_RLatLon0.09_PT039H.grib2 2026-05-05 20:51 451K
20260505T18Z_MSC_RDPS_AirTemp_IsbL-0700_RLatLon0.09_PT039H.grib2 2026-05-05 20:51 474K
20260505T18Z_MSC_RDPS_AirTemp_IsbL-0750_RLatLon0.09_PT039H.grib2 2026-05-05 20:51 517K
20260505T18Z_MSC_RDPS_AirTemp_IsbL-0800_RLatLon0.09_PT039H.grib2 2026-05-05 20:51 571K
20260505T18Z_MSC_RDPS_AirTemp_IsbL-0850_RLatLon0.09_PT039H.grib2 2026-05-05 20:51 629K
20260505T18Z_MSC_RDPS_AirTemp_IsbL-0875_RLatLon0.09_PT039H.grib2 2026-05-05 20:51 523K
20260505T18Z_MSC_RDPS_AirTemp_IsbL-0900_RLatLon0.09_PT039H.grib2 2026-05-05 20:51 530K
20260505T18Z_MSC_RDPS_AirTemp_IsbL-0925_RLatLon0.09_PT039H.grib2 2026-05-05 20:51 528K
20260505T18Z_MSC_RDPS_AirTemp_IsbL-0950_RLatLon0.09_PT039H.grib2 2026-05-05 20:51 526K
20260505T18Z_MSC_RDPS_AirTemp_IsbL-0970_RLatLon0.09_PT039H.grib2 2026-05-05 20:51 523K
20260505T18Z_MSC_RDPS_AirTemp_IsbL-0985_RLatLon0.09_PT039H.grib2 2026-05-05 20:51 511K
20260505T18Z_MSC_RDPS_AirTemp_IsbL-1000_RLatLon0.09_PT039H.grib2 2026-05-05 20:51 492K
20260505T18Z_MSC_RDPS_AirTemp_IsbL-1015_RLatLon0.09_PT039H.grib2 2026-05-05 20:51 492K
20260505T18Z_MSC_RDPS_Albedo_Sfc_RLatLon0.09_PT039H.grib2 2026-05-05 20:51 159K
20260505T18Z_MSC_RDPS_CAPE_Sfc_RLatLon0.09_PT039H.grib2 2026-05-05 20:51 1.7M
20260505T18Z_MSC_RDPS_CIN_Sfc_RLatLon0.09_PT039H.grib2 2026-05-05 20:51 1.1M
20260505T18Z_MSC_RDPS_CloudWater_EAtm_RLatLon0.09_PT039H.grib2 2026-05-05 20:51 222K
20260505T18Z_MSC_RDPS_ConvectivePrecip-Accum_Sfc_RLatLon0.09_PT039H.grib2 2026-05-05 20:51 959K
20260505T18Z_MSC_RDPS_DewPointDepression_AGL-2m_RLatLon0.09_PT039H.grib2 2026-05-05 20:51 400K
20260505T18Z_MSC_RDPS_DewPointDepression_IsbL-0001_RLatLon0.09_PT039H.grib2 2026-05-05 20:51 193
20260505T18Z_MSC_RDPS_DewPointDepression_IsbL-0005_RLatLon0.09_PT039H.grib2 2026-05-05 20:51 193
20260505T18Z_MSC_RDPS_DewPointDepression_IsbL-0010_RLatLon0.09_PT039H.grib2 2026-05-05 20:51 193
20260505T18Z_MSC_RDPS_DewPointDepression_IsbL-0020_RLatLon0.09_PT039H.grib2 2026-05-05 20:51 193
20260505T18Z_MSC_RDPS_DewPointDepression_IsbL-0030_RLatLon0.09_PT039H.grib2 2026-05-05 20:51 193
20260505T18Z_MSC_RDPS_DewPointDepression_IsbL-0050_RLatLon0.09_PT039H.grib2 2026-05-05 20:51 80K
20260505T18Z_MSC_RDPS_DewPointDepression_IsbL-0100_RLatLon0.09_PT039H.grib2 2026-05-05 20:51 112K
20260505T18Z_MSC_RDPS_DewPointDepression_IsbL-0150_RLatLon0.09_PT039H.grib2 2026-05-05 20:51 133K
20260505T18Z_MSC_RDPS_DewPointDepression_IsbL-0175_RLatLon0.09_PT039H.grib2 2026-05-05 20:51 171K
20260505T18Z_MSC_RDPS_DewPointDepression_IsbL-0200_RLatLon0.09_PT039H.grib2 2026-05-05 20:51 211K
20260505T18Z_MSC_RDPS_DewPointDepression_IsbL-0225_RLatLon0.09_PT039H.grib2 2026-05-05 20:51 244K
20260505T18Z_MSC_RDPS_DewPointDepression_IsbL-0250_RLatLon0.09_PT039H.grib2 2026-05-05 20:51 291K
20260505T18Z_MSC_RDPS_DewPointDepression_IsbL-0275_RLatLon0.09_PT039H.grib2 2026-05-05 20:51 304K
20260505T18Z_MSC_RDPS_DewPointDepression_IsbL-0300_RLatLon0.09_PT039H.grib2 2026-05-05 20:51 323K
20260505T18Z_MSC_RDPS_DewPointDepression_IsbL-0350_RLatLon0.09_PT039H.grib2 2026-05-05 20:51 329K
20260505T18Z_MSC_RDPS_DewPointDepression_IsbL-0400_RLatLon0.09_PT039H.grib2 2026-05-05 20:51 338K
20260505T18Z_MSC_RDPS_DewPointDepression_IsbL-0450_RLatLon0.09_PT039H.grib2 2026-05-05 20:51 344K
20260505T18Z_MSC_RDPS_DewPointDepression_IsbL-0500_RLatLon0.09_PT039H.grib2 2026-05-05 20:51 346K
20260505T18Z_MSC_RDPS_DewPointDepression_IsbL-0550_RLatLon0.09_PT039H.grib2 2026-05-05 20:51 356K
20260505T18Z_MSC_RDPS_DewPointDepression_IsbL-0600_RLatLon0.09_PT039H.grib2 2026-05-05 20:51 363K
20260505T18Z_MSC_RDPS_DewPointDepression_IsbL-0650_RLatLon0.09_PT039H.grib2 2026-05-05 20:51 364K
20260505T18Z_MSC_RDPS_DewPointDepression_IsbL-0700_RLatLon0.09_PT039H.grib2 2026-05-05 20:51 373K
20260505T18Z_MSC_RDPS_DewPointDepression_IsbL-0750_RLatLon0.09_PT039H.grib2 2026-05-05 20:51 397K
20260505T18Z_MSC_RDPS_DewPointDepression_IsbL-0800_RLatLon0.09_PT039H.grib2 2026-05-05 20:51 441K
20260505T18Z_MSC_RDPS_DewPointDepression_IsbL-0850_RLatLon0.09_PT039H.grib2 2026-05-05 20:51 478K
20260505T18Z_MSC_RDPS_DewPointDepression_IsbL-0875_RLatLon0.09_PT039H.grib2 2026-05-05 20:51 477K
20260505T18Z_MSC_RDPS_DewPointDepression_IsbL-0900_RLatLon0.09_PT039H.grib2 2026-05-05 20:51 464K
20260505T18Z_MSC_RDPS_DewPointDepression_IsbL-0925_RLatLon0.09_PT039H.grib2 2026-05-05 20:51 454K
20260505T18Z_MSC_RDPS_DewPointDepression_IsbL-0950_RLatLon0.09_PT039H.grib2 2026-05-05 20:51 446K
20260505T18Z_MSC_RDPS_DewPointDepression_IsbL-0970_RLatLon0.09_PT039H.grib2 2026-05-05 20:51 439K
20260505T18Z_MSC_RDPS_DewPointDepression_IsbL-0985_RLatLon0.09_PT039H.grib2 2026-05-05 20:51 435K
20260505T18Z_MSC_RDPS_DewPointDepression_IsbL-1000_RLatLon0.09_PT039H.grib2 2026-05-05 20:51 432K
20260505T18Z_MSC_RDPS_DewPointDepression_IsbL-1015_RLatLon0.09_PT039H.grib2 2026-05-05 20:51 421K
20260505T18Z_MSC_RDPS_DewPoint_AGL-2m_RLatLon0.09_PT039H.grib2 2026-05-05 20:51 398K
20260505T18Z_MSC_RDPS_DownwardLongwaveRadiationFlux-Accum_Sfc_RLatLon0.09_PT039H.grib2 2026-05-05 20:51 384K
20260505T18Z_MSC_RDPS_DownwardShortwaveRadiationFlux-Accum_NTAtm_RLatLon0.09_PT039H.grib2 2026-05-05 20:51 137K
20260505T18Z_MSC_RDPS_DownwardShortwaveRadiationFlux-Accum_Sfc_RLatLon0.09_PT039H.grib2 2026-05-05 20:51 575K
20260505T18Z_MSC_RDPS_FreezingRain-Accum1h_Sfc_RLatLon0.09_PT039H.grib2 2026-05-05 20:51 36K
20260505T18Z_MSC_RDPS_FreezingRain-Accum3h_Sfc_RLatLon0.09_PT039H.grib2 2026-05-05 20:51 37K
20260505T18Z_MSC_RDPS_FreezingRain-Accum_Sfc_RLatLon0.09_PT039H.grib2 2026-05-05 20:51 146K
20260505T18Z_MSC_RDPS_GeopotentialHeight_IsbL-0001_RLatLon0.09_PT039H.grib2 2026-05-05 20:51 240K
20260505T18Z_MSC_RDPS_GeopotentialHeight_IsbL-0005_RLatLon0.09_PT039H.grib2 2026-05-05 20:51 339K
20260505T18Z_MSC_RDPS_GeopotentialHeight_IsbL-0010_RLatLon0.09_PT039H.grib2 2026-05-05 20:51 340K
20260505T18Z_MSC_RDPS_GeopotentialHeight_IsbL-0020_RLatLon0.09_PT039H.grib2 2026-05-05 20:51 307K
20260505T18Z_MSC_RDPS_GeopotentialHeight_IsbL-0030_RLatLon0.09_PT039H.grib2 2026-05-05 20:51 309K
20260505T18Z_MSC_RDPS_GeopotentialHeight_IsbL-0050_RLatLon0.09_PT039H.grib2 2026-05-05 20:51 310K
20260505T18Z_MSC_RDPS_GeopotentialHeight_IsbL-0100_RLatLon0.09_PT039H.grib2 2026-05-05 20:51 286K
20260505T18Z_MSC_RDPS_GeopotentialHeight_IsbL-0150_RLatLon0.09_PT039H.grib2 2026-05-05 20:51 228K
20260505T18Z_MSC_RDPS_GeopotentialHeight_IsbL-0175_RLatLon0.09_PT039H.grib2 2026-05-05 20:51 230K
20260505T18Z_MSC_RDPS_GeopotentialHeight_IsbL-0200_RLatLon0.09_PT039H.grib2 2026-05-05 20:51 234K
20260505T18Z_MSC_RDPS_GeopotentialHeight_IsbL-0225_RLatLon0.09_PT039H.grib2 2026-05-05 20:51 235K
20260505T18Z_MSC_RDPS_GeopotentialHeight_IsbL-0250_RLatLon0.09_PT039H.grib2 2026-05-05 20:51 236K
20260505T18Z_MSC_RDPS_GeopotentialHeight_IsbL-0275_RLatLon0.09_PT039H.grib2 2026-05-05 20:51 236K
20260505T18Z_MSC_RDPS_GeopotentialHeight_IsbL-0300_RLatLon0.09_PT039H.grib2 2026-05-05 20:51 236K
20260505T18Z_MSC_RDPS_GeopotentialHeight_IsbL-0350_RLatLon0.09_PT039H.grib2 2026-05-05 20:51 232K
20260505T18Z_MSC_RDPS_GeopotentialHeight_IsbL-0400_RLatLon0.09_PT039H.grib2 2026-05-05 20:51 229K
20260505T18Z_MSC_RDPS_GeopotentialHeight_IsbL-0450_RLatLon0.09_PT039H.grib2 2026-05-05 20:51 296K
20260505T18Z_MSC_RDPS_GeopotentialHeight_IsbL-0500_RLatLon0.09_PT039H.grib2 2026-05-05 20:51 290K
20260505T18Z_MSC_RDPS_GeopotentialHeight_IsbL-0550_RLatLon0.09_PT039H.grib2 2026-05-05 20:51 287K
20260505T18Z_MSC_RDPS_GeopotentialHeight_IsbL-0600_RLatLon0.09_PT039H.grib2 2026-05-05 20:51 283K
20260505T18Z_MSC_RDPS_GeopotentialHeight_IsbL-0650_RLatLon0.09_PT039H.grib2 2026-05-05 20:51 253K
20260505T18Z_MSC_RDPS_GeopotentialHeight_IsbL-0700_RLatLon0.09_PT039H.grib2 2026-05-05 20:51 333K
20260505T18Z_MSC_RDPS_GeopotentialHeight_IsbL-0750_RLatLon0.09_PT039H.grib2 2026-05-05 20:51 336K
20260505T18Z_MSC_RDPS_GeopotentialHeight_IsbL-0800_RLatLon0.09_PT039H.grib2 2026-05-05 20:51 377K
20260505T18Z_MSC_RDPS_GeopotentialHeight_IsbL-0850_RLatLon0.09_PT039H.grib2 2026-05-05 20:51 388K
20260505T18Z_MSC_RDPS_GeopotentialHeight_IsbL-0875_RLatLon0.09_PT039H.grib2 2026-05-05 20:51 391K
20260505T18Z_MSC_RDPS_GeopotentialHeight_IsbL-0900_RLatLon0.09_PT039H.grib2 2026-05-05 20:51 393K
20260505T18Z_MSC_RDPS_GeopotentialHeight_IsbL-0925_RLatLon0.09_PT039H.grib2 2026-05-05 20:51 396K
20260505T18Z_MSC_RDPS_GeopotentialHeight_IsbL-0950_RLatLon0.09_PT039H.grib2 2026-05-05 20:51 399K
20260505T18Z_MSC_RDPS_GeopotentialHeight_IsbL-0970_RLatLon0.09_PT039H.grib2 2026-05-05 20:51 404K
20260505T18Z_MSC_RDPS_GeopotentialHeight_IsbL-0985_RLatLon0.09_PT039H.grib2 2026-05-05 20:51 413K
20260505T18Z_MSC_RDPS_GeopotentialHeight_IsbL-1000_RLatLon0.09_PT039H.grib2 2026-05-05 20:51 425K
20260505T18Z_MSC_RDPS_GeopotentialHeight_IsbL-1015_RLatLon0.09_PT039H.grib2 2026-05-05 20:51 442K
20260505T18Z_MSC_RDPS_HighLowPressure_MSL_RLatLon0.09_PT039H.json 2026-05-05 20:43 22K
20260505T18Z_MSC_RDPS_Humidex_Sfc_RLatLon0.09_PT039H.grib2 2026-05-05 20:51 2.4M
20260505T18Z_MSC_RDPS_IcePellets-Accum1h_Sfc_RLatLon0.09_PT039H.grib2 2026-05-05 20:51 5.6K
20260505T18Z_MSC_RDPS_IcePellets-Accum3h_Sfc_RLatLon0.09_PT039H.grib2 2026-05-05 20:51 5.6K
20260505T18Z_MSC_RDPS_IcePellets-Accum_Sfc_RLatLon0.09_PT039H.grib2 2026-05-05 20:51 26K
20260505T18Z_MSC_RDPS_KIndex_Sfc_RLatLon0.09_PT039H.grib2 2026-05-05 20:51 2.5M
20260505T18Z_MSC_RDPS_LatentHeatNetFlux_Sfc_RLatLon0.09_PT039H.grib2 2026-05-05 20:51 409K
20260505T18Z_MSC_RDPS_LiftedIndex-MU-VT_IsbL-0500_RLatLon0.09_PT039H.grib2 2026-05-05 20:51 2.4M
20260505T18Z_MSC_RDPS_NetLongwaveRadiationFlux-Accum_Sfc_RLatLon0.09_PT039H.grib2 2026-05-05 20:51 517K
20260505T18Z_MSC_RDPS_NetShortwaveRadiationFlux-Accum_Sfc_RLatLon0.09_PT039H.grib2 2026-05-05 20:51 526K
20260505T18Z_MSC_RDPS_PlanetaryBoundaryLayerHeight_Sfc_RLatLon0.09_PT039H.grib2 2026-05-05 20:51 1.1M
20260505T18Z_MSC_RDPS_Precip-Accum1h_Sfc_RLatLon0.09_PT039H.grib2 2026-05-05 20:51 1.3M
20260505T18Z_MSC_RDPS_Precip-Accum3h_Sfc_RLatLon0.09_PT039H.grib2 2026-05-05 20:51 1.4M
20260505T18Z_MSC_RDPS_Precip-Accum_Sfc_RLatLon0.09_PT039H.grib2 2026-05-05 20:51 2.0M
20260505T18Z_MSC_RDPS_PrecipRate_Sfc_RLatLon0.09_PT039H.grib2 2026-05-05 20:51 197K
20260505T18Z_MSC_RDPS_PrecipType-Instant_Sfc_RLatLon0.09_PT039H.grib2 2026-05-05 20:51 599K
20260505T18Z_MSC_RDPS_Pressure-Trend3h_Sfc_RLatLon0.09_PT039H.grib2 2026-05-05 20:51 1.2M
20260505T18Z_MSC_RDPS_Pressure_MSL_RLatLon0.09_PT039H.grib2 2026-05-05 20:51 290K
20260505T18Z_MSC_RDPS_Pressure_PVU-1.5_RLatLon0.09_PT039H.grib2 2026-05-05 20:51 2.3M
20260505T18Z_MSC_RDPS_Pressure_PVU-1_RLatLon0.09_PT039H.grib2 2026-05-05 20:51 2.4M
20260505T18Z_MSC_RDPS_Pressure_PVU-2_RLatLon0.09_PT039H.grib2 2026-05-05 20:51 2.4M
20260505T18Z_MSC_RDPS_Pressure_Sfc_RLatLon0.09_PT039H.grib2 2026-05-05 20:51 498K
20260505T18Z_MSC_RDPS_RadiativeTemp_Sfc_RLatLon0.09_PT039H.grib2 2026-05-05 20:51 305K
20260505T18Z_MSC_RDPS_Rain-Accum1h_Sfc_RLatLon0.09_PT039H.grib2 2026-05-05 20:51 643K
20260505T18Z_MSC_RDPS_Rain-Accum3h_Sfc_RLatLon0.09_PT039H.grib2 2026-05-05 20:51 713K
20260505T18Z_MSC_RDPS_Rain-Accum_Sfc_RLatLon0.09_PT039H.grib2 2026-05-05 20:51 1.6M
20260505T18Z_MSC_RDPS_RelativeHumidity_AGL-2m_RLatLon0.09_PT039H.grib2 2026-05-05 20:51 1.0M
20260505T18Z_MSC_RDPS_RelativeHumidity_IsbL-0010_RLatLon0.09_PT039H.grib2 2026-05-05 20:51 712K
20260505T18Z_MSC_RDPS_RelativeHumidity_IsbL-0020_RLatLon0.09_PT039H.grib2 2026-05-05 20:51 662K
20260505T18Z_MSC_RDPS_RelativeHumidity_IsbL-0030_RLatLon0.09_PT039H.grib2 2026-05-05 20:51 602K
20260505T18Z_MSC_RDPS_RelativeHumidity_IsbL-0050_RLatLon0.09_PT039H.grib2 2026-05-05 20:51 354K
20260505T18Z_MSC_RDPS_RelativeHumidity_IsbL-0100_RLatLon0.09_PT039H.grib2 2026-05-05 20:51 276K
20260505T18Z_MSC_RDPS_RelativeHumidity_IsbL-0150_RLatLon0.09_PT039H.grib2 2026-05-05 20:51 404K
20260505T18Z_MSC_RDPS_RelativeHumidity_IsbL-0175_RLatLon0.09_PT039H.grib2 2026-05-05 20:51 458K
20260505T18Z_MSC_RDPS_RelativeHumidity_IsbL-0200_RLatLon0.09_PT039H.grib2 2026-05-05 20:51 531K
20260505T18Z_MSC_RDPS_RelativeHumidity_IsbL-0225_RLatLon0.09_PT039H.grib2 2026-05-05 20:51 598K
20260505T18Z_MSC_RDPS_RelativeHumidity_IsbL-0250_RLatLon0.09_PT039H.grib2 2026-05-05 20:51 664K
20260505T18Z_MSC_RDPS_RelativeHumidity_IsbL-0275_RLatLon0.09_PT039H.grib2 2026-05-05 20:51 694K
20260505T18Z_MSC_RDPS_RelativeHumidity_IsbL-0300_RLatLon0.09_PT039H.grib2 2026-05-05 20:51 742K
20260505T18Z_MSC_RDPS_RelativeHumidity_IsbL-0350_RLatLon0.09_PT039H.grib2 2026-05-05 20:51 765K
20260505T18Z_MSC_RDPS_RelativeHumidity_IsbL-0400_RLatLon0.09_PT039H.grib2 2026-05-05 20:51 781K
20260505T18Z_MSC_RDPS_RelativeHumidity_IsbL-0450_RLatLon0.09_PT039H.grib2 2026-05-05 20:51 789K
20260505T18Z_MSC_RDPS_RelativeHumidity_IsbL-0500_RLatLon0.09_PT039H.grib2 2026-05-05 20:51 793K
20260505T18Z_MSC_RDPS_RelativeHumidity_IsbL-0550_RLatLon0.09_PT039H.grib2 2026-05-05 20:51 810K
20260505T18Z_MSC_RDPS_RelativeHumidity_IsbL-0600_RLatLon0.09_PT039H.grib2 2026-05-05 20:51 827K
20260505T18Z_MSC_RDPS_RelativeHumidity_IsbL-0650_RLatLon0.09_PT039H.grib2 2026-05-05 20:51 844K
20260505T18Z_MSC_RDPS_RelativeHumidity_IsbL-0700_RLatLon0.09_PT039H.grib2 2026-05-05 20:51 854K
20260505T18Z_MSC_RDPS_RelativeHumidity_IsbL-0750_RLatLon0.09_PT039H.grib2 2026-05-05 20:51 909K
20260505T18Z_MSC_RDPS_RelativeHumidity_IsbL-0800_RLatLon0.09_PT039H.grib2 2026-05-05 20:51 1.0M
20260505T18Z_MSC_RDPS_RelativeHumidity_IsbL-0850_RLatLon0.09_PT039H.grib2 2026-05-05 20:51 1.0M
20260505T18Z_MSC_RDPS_RelativeHumidity_IsbL-0875_RLatLon0.09_PT039H.grib2 2026-05-05 20:51 1.1M
20260505T18Z_MSC_RDPS_RelativeHumidity_IsbL-0900_RLatLon0.09_PT039H.grib2 2026-05-05 20:51 1.1M
20260505T18Z_MSC_RDPS_RelativeHumidity_IsbL-0925_RLatLon0.09_PT039H.grib2 2026-05-05 20:51 1.1M
20260505T18Z_MSC_RDPS_RelativeHumidity_IsbL-0950_RLatLon0.09_PT039H.grib2 2026-05-05 20:51 1.1M
20260505T18Z_MSC_RDPS_RelativeHumidity_IsbL-0970_RLatLon0.09_PT039H.grib2 2026-05-05 20:51 1.1M
20260505T18Z_MSC_RDPS_RelativeHumidity_IsbL-0985_RLatLon0.09_PT039H.grib2 2026-05-05 20:51 1.0M
20260505T18Z_MSC_RDPS_RelativeHumidity_IsbL-1000_RLatLon0.09_PT039H.grib2 2026-05-05 20:51 1.0M
20260505T18Z_MSC_RDPS_RelativeHumidity_IsbL-1015_RLatLon0.09_PT039H.grib2 2026-05-05 20:51 1.0M
20260505T18Z_MSC_RDPS_Runoff-Accum_Sfc_RLatLon0.09_PT039H.grib2 2026-05-05 20:51 70K
20260505T18Z_MSC_RDPS_SWEATIndex_Sfc_RLatLon0.09_PT039H.grib2 2026-05-05 20:51 2.4M
20260505T18Z_MSC_RDPS_SeeingIndex_EAtm_RLatLon0.09_PT039H.grib2 2026-05-05 20:51 1.0M
20260505T18Z_MSC_RDPS_SensibleHeatNetFlux_Sfc_RLatLon0.09_PT039H.grib2 2026-05-05 20:51 288K
20260505T18Z_MSC_RDPS_ShowalterIndex_IsbL-0500_RLatLon0.09_PT039H.grib2 2026-05-05 20:51 2.6M
20260505T18Z_MSC_RDPS_SkyTransparencyIndex_EAtm_RLatLon0.09_PT039H.grib2 2026-05-05 20:51 726K
20260505T18Z_MSC_RDPS_Snow-Accum1h_Sfc_RLatLon0.09_PT039H.grib2 2026-05-05 20:51 456K
20260505T18Z_MSC_RDPS_Snow-Accum3h_Sfc_RLatLon0.09_PT039H.grib2 2026-05-05 20:51 455K
20260505T18Z_MSC_RDPS_Snow-Accum_Sfc_RLatLon0.09_PT039H.grib2 2026-05-05 20:51 740K
20260505T18Z_MSC_RDPS_SnowDensity_Sfc_RLatLon0.09_PT039H.grib2 2026-05-05 20:51 175K
20260505T18Z_MSC_RDPS_SnowDepth_Sfc_RLatLon0.09_PT039H.grib2 2026-05-05 20:51 647K
20260505T18Z_MSC_RDPS_SoilTemp_DBS-0to10cm_RLatLon0.09_PT039H.grib2 2026-05-05 20:51 234K
20260505T18Z_MSC_RDPS_SoilTemp_Sfc_RLatLon0.09_PT039H.grib2 2026-05-05 20:51 282K
20260505T18Z_MSC_RDPS_SoilVolumetricIceContent_Sfc_RLatLon0.09_PT039H.grib2 2026-05-05 20:51 150K
20260505T18Z_MSC_RDPS_SoilVolumetricWaterContent_DBS-0to10cm_RLatLon0.09_PT039H.grib2 2026-05-05 20:51 283K
20260505T18Z_MSC_RDPS_SoilVolumetricWaterContent_DBS-0to1cm_RLatLon0.09_PT039H.grib2 2026-05-05 20:51 343K
20260505T18Z_MSC_RDPS_SpecificHumidity_AGL-120m_RLatLon0.09_PT039H.grib2 2026-05-05 20:51 498K
20260505T18Z_MSC_RDPS_SpecificHumidity_AGL-2m_RLatLon0.09_PT039H.grib2 2026-05-05 20:51 664K
20260505T18Z_MSC_RDPS_SpecificHumidity_AGL-40m_RLatLon0.09_PT039H.grib2 2026-05-05 20:51 503K
20260505T18Z_MSC_RDPS_SpecificHumidity_AGL-80m_RLatLon0.09_PT039H.grib2 2026-05-05 20:51 500K
20260505T18Z_MSC_RDPS_SpecificHumidity_IsbL-0001_RLatLon0.09_PT039H.grib2 2026-05-05 20:51 363K
20260505T18Z_MSC_RDPS_SpecificHumidity_IsbL-0005_RLatLon0.09_PT039H.grib2 2026-05-05 20:51 375K
20260505T18Z_MSC_RDPS_SpecificHumidity_IsbL-0010_RLatLon0.09_PT039H.grib2 2026-05-05 20:51 408K
20260505T18Z_MSC_RDPS_SpecificHumidity_IsbL-0020_RLatLon0.09_PT039H.grib2 2026-05-05 20:51 496K
20260505T18Z_MSC_RDPS_SpecificHumidity_IsbL-0030_RLatLon0.09_PT039H.grib2 2026-05-05 20:51 371K
20260505T18Z_MSC_RDPS_SpecificHumidity_IsbL-0050_RLatLon0.09_PT039H.grib2 2026-05-05 20:51 449K
20260505T18Z_MSC_RDPS_SpecificHumidity_IsbL-0100_RLatLon0.09_PT039H.grib2 2026-05-05 20:51 419K
20260505T18Z_MSC_RDPS_SpecificHumidity_IsbL-0150_RLatLon0.09_PT039H.grib2 2026-05-05 20:51 446K
20260505T18Z_MSC_RDPS_SpecificHumidity_IsbL-0175_RLatLon0.09_PT039H.grib2 2026-05-05 20:51 427K
20260505T18Z_MSC_RDPS_SpecificHumidity_IsbL-0200_RLatLon0.09_PT039H.grib2 2026-05-05 20:51 455K
20260505T18Z_MSC_RDPS_SpecificHumidity_IsbL-0225_RLatLon0.09_PT039H.grib2 2026-05-05 20:51 439K
20260505T18Z_MSC_RDPS_SpecificHumidity_IsbL-0250_RLatLon0.09_PT039H.grib2 2026-05-05 20:51 543K
20260505T18Z_MSC_RDPS_SpecificHumidity_IsbL-0275_RLatLon0.09_PT039H.grib2 2026-05-05 20:51 463K
20260505T18Z_MSC_RDPS_SpecificHumidity_IsbL-0300_RLatLon0.09_PT039H.grib2 2026-05-05 20:51 537K
20260505T18Z_MSC_RDPS_SpecificHumidity_IsbL-0350_RLatLon0.09_PT039H.grib2 2026-05-05 20:51 531K
20260505T18Z_MSC_RDPS_SpecificHumidity_IsbL-0400_RLatLon0.09_PT039H.grib2 2026-05-05 20:51 514K
20260505T18Z_MSC_RDPS_SpecificHumidity_IsbL-0450_RLatLon0.09_PT039H.grib2 2026-05-05 20:51 568K
20260505T18Z_MSC_RDPS_SpecificHumidity_IsbL-0500_RLatLon0.09_PT039H.grib2 2026-05-05 20:51 501K
20260505T18Z_MSC_RDPS_SpecificHumidity_IsbL-0550_RLatLon0.09_PT039H.grib2 2026-05-05 20:51 557K
20260505T18Z_MSC_RDPS_SpecificHumidity_IsbL-0600_RLatLon0.09_PT039H.grib2 2026-05-05 20:51 624K
20260505T18Z_MSC_RDPS_SpecificHumidity_IsbL-0650_RLatLon0.09_PT039H.grib2 2026-05-05 20:51 536K
20260505T18Z_MSC_RDPS_SpecificHumidity_IsbL-0700_RLatLon0.09_PT039H.grib2 2026-05-05 20:51 577K
20260505T18Z_MSC_RDPS_SpecificHumidity_IsbL-0750_RLatLon0.09_PT039H.grib2 2026-05-05 20:51 634K
20260505T18Z_MSC_RDPS_SpecificHumidity_IsbL-0800_RLatLon0.09_PT039H.grib2 2026-05-05 20:51 727K
20260505T18Z_MSC_RDPS_SpecificHumidity_IsbL-0850_RLatLon0.09_PT039H.grib2 2026-05-05 20:51 809K
20260505T18Z_MSC_RDPS_SpecificHumidity_IsbL-0875_RLatLon0.09_PT039H.grib2 2026-05-05 20:51 835K
20260505T18Z_MSC_RDPS_SpecificHumidity_IsbL-0900_RLatLon0.09_PT039H.grib2 2026-05-05 20:51 846K
20260505T18Z_MSC_RDPS_SpecificHumidity_IsbL-0925_RLatLon0.09_PT039H.grib2 2026-05-05 20:51 851K
20260505T18Z_MSC_RDPS_SpecificHumidity_IsbL-0950_RLatLon0.09_PT039H.grib2 2026-05-05 20:51 851K
20260505T18Z_MSC_RDPS_SpecificHumidity_IsbL-0970_RLatLon0.09_PT039H.grib2 2026-05-05 20:51 701K
20260505T18Z_MSC_RDPS_SpecificHumidity_IsbL-0985_RLatLon0.09_PT039H.grib2 2026-05-05 20:51 694K
20260505T18Z_MSC_RDPS_SpecificHumidity_IsbL-1000_RLatLon0.09_PT039H.grib2 2026-05-05 20:51 688K
20260505T18Z_MSC_RDPS_SpecificHumidity_IsbL-1015_RLatLon0.09_PT039H.grib2 2026-05-05 20:51 677K
20260505T18Z_MSC_RDPS_SpecificHumidity_Sfc_RLatLon0.09_PT039H.grib2 2026-05-05 20:51 298K
20260505T18Z_MSC_RDPS_StormRelativeHelicity_EtaL-10000_RLatLon0.09_PT039H.grib2 2026-05-05 20:51 1.1M
20260505T18Z_MSC_RDPS_StormSeverityIndex_EtaL-10000_RLatLon0.09_PT039H.grib2 2026-05-05 20:51 1.1M
20260505T18Z_MSC_RDPS_Thickness_IsbL-0850to0700_RLatLon0.09_PT039H.grib2 2026-05-05 20:51 245K
20260505T18Z_MSC_RDPS_Thickness_IsbL-1000to0500_RLatLon0.09_PT039H.grib2 2026-05-05 20:51 190K
20260505T18Z_MSC_RDPS_Thickness_IsbL-1000to0850_RLatLon0.09_PT039H.grib2 2026-05-05 20:51 258K
20260505T18Z_MSC_RDPS_TotalCloudCover_Sfc_RLatLon0.09_PT039H.grib2 2026-05-05 20:51 676K
20260505T18Z_MSC_RDPS_TotalTotalsIndex_Sfc_RLatLon0.09_PT039H.grib2 2026-05-05 20:51 2.4M
20260505T18Z_MSC_RDPS_UVIndex-ClearSky_Sfc_RLatLon0.09_PT039H.grib2 2026-05-05 20:51 86K
20260505T18Z_MSC_RDPS_UVIndex_Sfc_RLatLon0.09_PT039H.grib2 2026-05-05 20:51 177K
20260505T18Z_MSC_RDPS_UpwardLongwaveRadiationFlux_NTAtm_RLatLon0.09_PT039H.grib2 2026-05-05 20:51 487K
20260505T18Z_MSC_RDPS_UpwardShortwaveRadiationFlux_NTAtm_RLatLon0.09_PT039H.grib2 2026-05-05 20:51 179K
20260505T18Z_MSC_RDPS_VerticalVelocity_IsbL-0250_RLatLon0.09_PT039H.grib2 2026-05-05 20:51 574K
20260505T18Z_MSC_RDPS_VerticalVelocity_IsbL-0500_RLatLon0.09_PT039H.grib2 2026-05-05 20:51 675K
20260505T18Z_MSC_RDPS_VerticalVelocity_IsbL-0700_RLatLon0.09_PT039H.grib2 2026-05-05 20:51 586K
20260505T18Z_MSC_RDPS_VerticalVelocity_IsbL-0850_RLatLon0.09_PT039H.grib2 2026-05-05 20:51 689K
20260505T18Z_MSC_RDPS_VerticalWindShear_EtaL-6500_RLatLon0.09_PT039H.grib2 2026-05-05 20:51 1.2M
20260505T18Z_MSC_RDPS_WindChill_Sfc_RLatLon0.09_PT039H.grib2 2026-05-05 20:51 1.2M
20260505T18Z_MSC_RDPS_WindDir_AGL-10m_RLatLon0.09_PT039H.grib2 2026-05-05 20:51 1.0M
20260505T18Z_MSC_RDPS_WindDir_AGL-120m_RLatLon0.09_PT039H.grib2 2026-05-05 20:51 613K
20260505T18Z_MSC_RDPS_WindDir_AGL-40m_RLatLon0.09_PT039H.grib2 2026-05-05 20:51 648K
20260505T18Z_MSC_RDPS_WindDir_AGL-80m_RLatLon0.09_PT039H.grib2 2026-05-05 20:51 626K
20260505T18Z_MSC_RDPS_WindDir_IsbL-0001_RLatLon0.09_PT039H.grib2 2026-05-05 20:51 313K
20260505T18Z_MSC_RDPS_WindDir_IsbL-0005_RLatLon0.09_PT039H.grib2 2026-05-05 20:51 386K
20260505T18Z_MSC_RDPS_WindDir_IsbL-0010_RLatLon0.09_PT039H.grib2 2026-05-05 20:51 382K
20260505T18Z_MSC_RDPS_WindDir_IsbL-0020_RLatLon0.09_PT039H.grib2 2026-05-05 20:51 401K
20260505T18Z_MSC_RDPS_WindDir_IsbL-0030_RLatLon0.09_PT039H.grib2 2026-05-05 20:51 411K
20260505T18Z_MSC_RDPS_WindDir_IsbL-0050_RLatLon0.09_PT039H.grib2 2026-05-05 20:51 434K
20260505T18Z_MSC_RDPS_WindDir_IsbL-0100_RLatLon0.09_PT039H.grib2 2026-05-05 20:51 411K
20260505T18Z_MSC_RDPS_WindDir_IsbL-0150_RLatLon0.09_PT039H.grib2 2026-05-05 20:51 411K
20260505T18Z_MSC_RDPS_WindDir_IsbL-0175_RLatLon0.09_PT039H.grib2 2026-05-05 20:51 433K
20260505T18Z_MSC_RDPS_WindDir_IsbL-0200_RLatLon0.09_PT039H.grib2 2026-05-05 20:51 451K
20260505T18Z_MSC_RDPS_WindDir_IsbL-0225_RLatLon0.09_PT039H.grib2 2026-05-05 20:51 460K
20260505T18Z_MSC_RDPS_WindDir_IsbL-0250_RLatLon0.09_PT039H.grib2 2026-05-05 20:51 458K
20260505T18Z_MSC_RDPS_WindDir_IsbL-0275_RLatLon0.09_PT039H.grib2 2026-05-05 20:51 473K
20260505T18Z_MSC_RDPS_WindDir_IsbL-0300_RLatLon0.09_PT039H.grib2 2026-05-05 20:51 470K
20260505T18Z_MSC_RDPS_WindDir_IsbL-0350_RLatLon0.09_PT039H.grib2 2026-05-05 20:51 498K
20260505T18Z_MSC_RDPS_WindDir_IsbL-0400_RLatLon0.09_PT039H.grib2 2026-05-05 20:51 508K
20260505T18Z_MSC_RDPS_WindDir_IsbL-0450_RLatLon0.09_PT039H.grib2 2026-05-05 20:51 523K
20260505T18Z_MSC_RDPS_WindDir_IsbL-0500_RLatLon0.09_PT039H.grib2 2026-05-05 20:51 546K
20260505T18Z_MSC_RDPS_WindDir_IsbL-0550_RLatLon0.09_PT039H.grib2 2026-05-05 20:51 563K
20260505T18Z_MSC_RDPS_WindDir_IsbL-0600_RLatLon0.09_PT039H.grib2 2026-05-05 20:51 588K
20260505T18Z_MSC_RDPS_WindDir_IsbL-0650_RLatLon0.09_PT039H.grib2 2026-05-05 20:51 631K
20260505T18Z_MSC_RDPS_WindDir_IsbL-0700_RLatLon0.09_PT039H.grib2 2026-05-05 20:51 673K
20260505T18Z_MSC_RDPS_WindDir_IsbL-0750_RLatLon0.09_PT039H.grib2 2026-05-05 20:51 724K
20260505T18Z_MSC_RDPS_WindDir_IsbL-0800_RLatLon0.09_PT039H.grib2 2026-05-05 20:51 792K
20260505T18Z_MSC_RDPS_WindDir_IsbL-0850_RLatLon0.09_PT039H.grib2 2026-05-05 20:51 870K
20260505T18Z_MSC_RDPS_WindDir_IsbL-0875_RLatLon0.09_PT039H.grib2 2026-05-05 20:51 899K
20260505T18Z_MSC_RDPS_WindDir_IsbL-0900_RLatLon0.09_PT039H.grib2 2026-05-05 20:51 913K
20260505T18Z_MSC_RDPS_WindDir_IsbL-0925_RLatLon0.09_PT039H.grib2 2026-05-05 20:51 923K
20260505T18Z_MSC_RDPS_WindDir_IsbL-0950_RLatLon0.09_PT039H.grib2 2026-05-05 20:51 926K
20260505T18Z_MSC_RDPS_WindDir_IsbL-0970_RLatLon0.09_PT039H.grib2 2026-05-05 20:51 932K
20260505T18Z_MSC_RDPS_WindDir_IsbL-0985_RLatLon0.09_PT039H.grib2 2026-05-05 20:51 939K
20260505T18Z_MSC_RDPS_WindDir_IsbL-1000_RLatLon0.09_PT039H.grib2 2026-05-05 20:51 956K
20260505T18Z_MSC_RDPS_WindDir_IsbL-1015_RLatLon0.09_PT039H.grib2 2026-05-05 20:51 1.0M
20260505T18Z_MSC_RDPS_WindGust-Max_AGL-10m_RLatLon0.09_PT039H.grib2 2026-05-05 20:51 1.0M
20260505T18Z_MSC_RDPS_WindGust-Min_AGL-10m_RLatLon0.09_PT039H.grib2 2026-05-05 20:51 966K
20260505T18Z_MSC_RDPS_WindGust_AGL-10m_RLatLon0.09_PT039H.grib2 2026-05-05 20:51 1.0M
20260505T18Z_MSC_RDPS_WindSpeed_AGL-10m_RLatLon0.09_PT039H.grib2 2026-05-05 20:51 842K
20260505T18Z_MSC_RDPS_WindSpeed_AGL-120m_RLatLon0.09_PT039H.grib2 2026-05-05 20:51 541K
20260505T18Z_MSC_RDPS_WindSpeed_AGL-40m_RLatLon0.09_PT039H.grib2 2026-05-05 20:51 543K
20260505T18Z_MSC_RDPS_WindSpeed_AGL-80m_RLatLon0.09_PT039H.grib2 2026-05-05 20:51 542K
20260505T18Z_MSC_RDPS_WindSpeed_IsbL-0001_RLatLon0.09_PT039H.grib2 2026-05-05 20:51 256K
20260505T18Z_MSC_RDPS_WindSpeed_IsbL-0005_RLatLon0.09_PT039H.grib2 2026-05-05 20:51 384K
20260505T18Z_MSC_RDPS_WindSpeed_IsbL-0010_RLatLon0.09_PT039H.grib2 2026-05-05 20:51 366K
20260505T18Z_MSC_RDPS_WindSpeed_IsbL-0020_RLatLon0.09_PT039H.grib2 2026-05-05 20:51 423K
20260505T18Z_MSC_RDPS_WindSpeed_IsbL-0030_RLatLon0.09_PT039H.grib2 2026-05-05 20:51 319K
20260505T18Z_MSC_RDPS_WindSpeed_IsbL-0050_RLatLon0.09_PT039H.grib2 2026-05-05 20:51 346K
20260505T18Z_MSC_RDPS_WindSpeed_IsbL-0100_RLatLon0.09_PT039H.grib2 2026-05-05 20:51 468K
20260505T18Z_MSC_RDPS_WindSpeed_IsbL-0150_RLatLon0.09_PT039H.grib2 2026-05-05 20:51 396K
20260505T18Z_MSC_RDPS_WindSpeed_IsbL-0175_RLatLon0.09_PT039H.grib2 2026-05-05 20:51 419K
20260505T18Z_MSC_RDPS_WindSpeed_IsbL-0200_RLatLon0.09_PT039H.grib2 2026-05-05 20:51 435K
20260505T18Z_MSC_RDPS_WindSpeed_IsbL-0225_RLatLon0.09_PT039H.grib2 2026-05-05 20:51 438K
20260505T18Z_MSC_RDPS_WindSpeed_IsbL-0250_RLatLon0.09_PT039H.grib2 2026-05-05 20:51 438K
20260505T18Z_MSC_RDPS_WindSpeed_IsbL-0275_RLatLon0.09_PT039H.grib2 2026-05-05 20:51 455K
20260505T18Z_MSC_RDPS_WindSpeed_IsbL-0300_RLatLon0.09_PT039H.grib2 2026-05-05 20:51 454K
20260505T18Z_MSC_RDPS_WindSpeed_IsbL-0350_RLatLon0.09_PT039H.grib2 2026-05-05 20:51 469K
20260505T18Z_MSC_RDPS_WindSpeed_IsbL-0400_RLatLon0.09_PT039H.grib2 2026-05-05 20:51 456K
20260505T18Z_MSC_RDPS_WindSpeed_IsbL-0450_RLatLon0.09_PT039H.grib2 2026-05-05 20:51 456K
20260505T18Z_MSC_RDPS_WindSpeed_IsbL-0500_RLatLon0.09_PT039H.grib2 2026-05-05 20:51 575K
20260505T18Z_MSC_RDPS_WindSpeed_IsbL-0550_RLatLon0.09_PT039H.grib2 2026-05-05 20:51 575K
20260505T18Z_MSC_RDPS_WindSpeed_IsbL-0600_RLatLon0.09_PT039H.grib2 2026-05-05 20:51 582K
20260505T18Z_MSC_RDPS_WindSpeed_IsbL-0650_RLatLon0.09_PT039H.grib2 2026-05-05 20:51 602K
20260505T18Z_MSC_RDPS_WindSpeed_IsbL-0700_RLatLon0.09_PT039H.grib2 2026-05-05 20:51 670K
20260505T18Z_MSC_RDPS_WindSpeed_IsbL-0750_RLatLon0.09_PT039H.grib2 2026-05-05 20:51 704K
20260505T18Z_MSC_RDPS_WindSpeed_IsbL-0800_RLatLon0.09_PT039H.grib2 2026-05-05 20:51 756K
20260505T18Z_MSC_RDPS_WindSpeed_IsbL-0850_RLatLon0.09_PT039H.grib2 2026-05-05 20:51 821K
20260505T18Z_MSC_RDPS_WindSpeed_IsbL-0875_RLatLon0.09_PT039H.grib2 2026-05-05 20:51 844K
20260505T18Z_MSC_RDPS_WindSpeed_IsbL-0900_RLatLon0.09_PT039H.grib2 2026-05-05 20:51 857K
20260505T18Z_MSC_RDPS_WindSpeed_IsbL-0925_RLatLon0.09_PT039H.grib2 2026-05-05 20:51 867K
20260505T18Z_MSC_RDPS_WindSpeed_IsbL-0950_RLatLon0.09_PT039H.grib2 2026-05-05 20:51 866K
20260505T18Z_MSC_RDPS_WindSpeed_IsbL-0970_RLatLon0.09_PT039H.grib2 2026-05-05 20:51 864K
20260505T18Z_MSC_RDPS_WindSpeed_IsbL-0985_RLatLon0.09_PT039H.grib2 2026-05-05 20:51 856K
20260505T18Z_MSC_RDPS_WindSpeed_IsbL-1000_RLatLon0.09_PT039H.grib2 2026-05-05 20:51 850K
20260505T18Z_MSC_RDPS_WindSpeed_IsbL-1015_RLatLon0.09_PT039H.grib2 2026-05-05 20:51 842K
20260505T18Z_MSC_RDPS_WindU_AGL-10m_RLatLon0.09_PT039H.grib2 2026-05-05 20:51 434K
20260505T18Z_MSC_RDPS_WindU_AGL-120m_RLatLon0.09_PT039H.grib2 2026-05-05 20:51 421K
20260505T18Z_MSC_RDPS_WindU_AGL-40m_RLatLon0.09_PT039H.grib2 2026-05-05 20:51 542K
20260505T18Z_MSC_RDPS_WindU_AGL-80m_RLatLon0.09_PT039H.grib2 2026-05-05 20:51 539K
20260505T18Z_MSC_RDPS_WindU_IsbL-0001_RLatLon0.09_PT039H.grib2 2026-05-05 20:51 295K
20260505T18Z_MSC_RDPS_WindU_IsbL-0005_RLatLon0.09_PT039H.grib2 2026-05-05 20:51 286K
20260505T18Z_MSC_RDPS_WindU_IsbL-0010_RLatLon0.09_PT039H.grib2 2026-05-05 20:51 298K
20260505T18Z_MSC_RDPS_WindU_IsbL-0020_RLatLon0.09_PT039H.grib2 2026-05-05 20:51 317K
20260505T18Z_MSC_RDPS_WindU_IsbL-0030_RLatLon0.09_PT039H.grib2 2026-05-05 20:51 352K
20260505T18Z_MSC_RDPS_WindU_IsbL-0050_RLatLon0.09_PT039H.grib2 2026-05-05 20:51 377K
20260505T18Z_MSC_RDPS_WindU_IsbL-0100_RLatLon0.09_PT039H.grib2 2026-05-05 20:51 330K
20260505T18Z_MSC_RDPS_WindU_IsbL-0150_RLatLon0.09_PT039H.grib2 2026-05-05 20:51 390K
20260505T18Z_MSC_RDPS_WindU_IsbL-0175_RLatLon0.09_PT039H.grib2 2026-05-05 20:51 413K
20260505T18Z_MSC_RDPS_WindU_IsbL-0200_RLatLon0.09_PT039H.grib2 2026-05-05 20:51 331K
20260505T18Z_MSC_RDPS_WindU_IsbL-0225_RLatLon0.09_PT039H.grib2 2026-05-05 20:51 333K
20260505T18Z_MSC_RDPS_WindU_IsbL-0250_RLatLon0.09_PT039H.grib2 2026-05-05 20:51 332K
20260505T18Z_MSC_RDPS_WindU_IsbL-0275_RLatLon0.09_PT039H.grib2 2026-05-05 20:51 346K
20260505T18Z_MSC_RDPS_WindU_IsbL-0300_RLatLon0.09_PT039H.grib2 2026-05-05 20:51 344K
20260505T18Z_MSC_RDPS_WindU_IsbL-0350_RLatLon0.09_PT039H.grib2 2026-05-05 20:51 356K
20260505T18Z_MSC_RDPS_WindU_IsbL-0400_RLatLon0.09_PT039H.grib2 2026-05-05 20:51 461K
20260505T18Z_MSC_RDPS_WindU_IsbL-0450_RLatLon0.09_PT039H.grib2 2026-05-05 20:51 461K
20260505T18Z_MSC_RDPS_WindU_IsbL-0500_RLatLon0.09_PT039H.grib2 2026-05-05 20:51 463K
20260505T18Z_MSC_RDPS_WindU_IsbL-0550_RLatLon0.09_PT039H.grib2 2026-05-05 20:51 465K
20260505T18Z_MSC_RDPS_WindU_IsbL-0600_RLatLon0.09_PT039H.grib2 2026-05-05 20:51 471K
20260505T18Z_MSC_RDPS_WindU_IsbL-0650_RLatLon0.09_PT039H.grib2 2026-05-05 20:51 488K
20260505T18Z_MSC_RDPS_WindU_IsbL-0700_RLatLon0.09_PT039H.grib2 2026-05-05 20:51 509K
20260505T18Z_MSC_RDPS_WindU_IsbL-0750_RLatLon0.09_PT039H.grib2 2026-05-05 20:51 537K
20260505T18Z_MSC_RDPS_WindU_IsbL-0800_RLatLon0.09_PT039H.grib2 2026-05-05 20:51 581K
20260505T18Z_MSC_RDPS_WindU_IsbL-0850_RLatLon0.09_PT039H.grib2 2026-05-05 20:51 636K
20260505T18Z_MSC_RDPS_WindU_IsbL-0875_RLatLon0.09_PT039H.grib2 2026-05-05 20:51 646K
20260505T18Z_MSC_RDPS_WindU_IsbL-0900_RLatLon0.09_PT039H.grib2 2026-05-05 20:51 657K
20260505T18Z_MSC_RDPS_WindU_IsbL-0925_RLatLon0.09_PT039H.grib2 2026-05-05 20:51 664K
20260505T18Z_MSC_RDPS_WindU_IsbL-0950_RLatLon0.09_PT039H.grib2 2026-05-05 20:51 663K
20260505T18Z_MSC_RDPS_WindU_IsbL-0970_RLatLon0.09_PT039H.grib2 2026-05-05 20:51 659K
20260505T18Z_MSC_RDPS_WindU_IsbL-0985_RLatLon0.09_PT039H.grib2 2026-05-05 20:51 653K
20260505T18Z_MSC_RDPS_WindU_IsbL-1000_RLatLon0.09_PT039H.grib2 2026-05-05 20:51 789K
20260505T18Z_MSC_RDPS_WindU_IsbL-1015_RLatLon0.09_PT039H.grib2 2026-05-05 20:51 783K
20260505T18Z_MSC_RDPS_WindV_AGL-10m_RLatLon0.09_PT039H.grib2 2026-05-05 20:51 430K
20260505T18Z_MSC_RDPS_WindV_AGL-120m_RLatLon0.09_PT039H.grib2 2026-05-05 20:51 419K
20260505T18Z_MSC_RDPS_WindV_AGL-40m_RLatLon0.09_PT039H.grib2 2026-05-05 20:51 538K
20260505T18Z_MSC_RDPS_WindV_AGL-80m_RLatLon0.09_PT039H.grib2 2026-05-05 20:51 420K
20260505T18Z_MSC_RDPS_WindV_IsbL-0001_RLatLon0.09_PT039H.grib2 2026-05-05 20:51 249K
20260505T18Z_MSC_RDPS_WindV_IsbL-0005_RLatLon0.09_PT039H.grib2 2026-05-05 20:51 288K
20260505T18Z_MSC_RDPS_WindV_IsbL-0010_RLatLon0.09_PT039H.grib2 2026-05-05 20:51 299K
20260505T18Z_MSC_RDPS_WindV_IsbL-0020_RLatLon0.09_PT039H.grib2 2026-05-05 20:51 318K
20260505T18Z_MSC_RDPS_WindV_IsbL-0030_RLatLon0.09_PT039H.grib2 2026-05-05 20:51 315K
20260505T18Z_MSC_RDPS_WindV_IsbL-0050_RLatLon0.09_PT039H.grib2 2026-05-05 20:51 341K
20260505T18Z_MSC_RDPS_WindV_IsbL-0100_RLatLon0.09_PT039H.grib2 2026-05-05 20:51 421K
20260505T18Z_MSC_RDPS_WindV_IsbL-0150_RLatLon0.09_PT039H.grib2 2026-05-05 20:51 386K
20260505T18Z_MSC_RDPS_WindV_IsbL-0175_RLatLon0.09_PT039H.grib2 2026-05-05 20:51 410K
20260505T18Z_MSC_RDPS_WindV_IsbL-0200_RLatLon0.09_PT039H.grib2 2026-05-05 20:51 426K
20260505T18Z_MSC_RDPS_WindV_IsbL-0225_RLatLon0.09_PT039H.grib2 2026-05-05 20:51 333K
20260505T18Z_MSC_RDPS_WindV_IsbL-0250_RLatLon0.09_PT039H.grib2 2026-05-05 20:51 331K
20260505T18Z_MSC_RDPS_WindV_IsbL-0275_RLatLon0.09_PT039H.grib2 2026-05-05 20:51 371K
20260505T18Z_MSC_RDPS_WindV_IsbL-0300_RLatLon0.09_PT039H.grib2 2026-05-05 20:51 368K
20260505T18Z_MSC_RDPS_WindV_IsbL-0350_RLatLon0.09_PT039H.grib2 2026-05-05 20:51 355K
20260505T18Z_MSC_RDPS_WindV_IsbL-0400_RLatLon0.09_PT039H.grib2 2026-05-05 20:51 358K
20260505T18Z_MSC_RDPS_WindV_IsbL-0450_RLatLon0.09_PT039H.grib2 2026-05-05 20:51 460K
20260505T18Z_MSC_RDPS_WindV_IsbL-0500_RLatLon0.09_PT039H.grib2 2026-05-05 20:51 462K
20260505T18Z_MSC_RDPS_WindV_IsbL-0550_RLatLon0.09_PT039H.grib2 2026-05-05 20:51 462K
20260505T18Z_MSC_RDPS_WindV_IsbL-0600_RLatLon0.09_PT039H.grib2 2026-05-05 20:51 469K
20260505T18Z_MSC_RDPS_WindV_IsbL-0650_RLatLon0.09_PT039H.grib2 2026-05-05 20:51 485K
20260505T18Z_MSC_RDPS_WindV_IsbL-0700_RLatLon0.09_PT039H.grib2 2026-05-05 20:51 506K
20260505T18Z_MSC_RDPS_WindV_IsbL-0750_RLatLon0.09_PT039H.grib2 2026-05-05 20:51 520K
20260505T18Z_MSC_RDPS_WindV_IsbL-0800_RLatLon0.09_PT039H.grib2 2026-05-05 20:51 565K
20260505T18Z_MSC_RDPS_WindV_IsbL-0850_RLatLon0.09_PT039H.grib2 2026-05-05 20:51 632K
20260505T18Z_MSC_RDPS_WindV_IsbL-0875_RLatLon0.09_PT039H.grib2 2026-05-05 20:51 652K
20260505T18Z_MSC_RDPS_WindV_IsbL-0900_RLatLon0.09_PT039H.grib2 2026-05-05 20:51 661K
20260505T18Z_MSC_RDPS_WindV_IsbL-0925_RLatLon0.09_PT039H.grib2 2026-05-05 20:51 661K
20260505T18Z_MSC_RDPS_WindV_IsbL-0950_RLatLon0.09_PT039H.grib2 2026-05-05 20:51 661K
20260505T18Z_MSC_RDPS_WindV_IsbL-0970_RLatLon0.09_PT039H.grib2 2026-05-05 20:51 657K
20260505T18Z_MSC_RDPS_WindV_IsbL-0985_RLatLon0.09_PT039H.grib2 2026-05-05 20:51 650K
20260505T18Z_MSC_RDPS_WindV_IsbL-1000_RLatLon0.09_PT039H.grib2 2026-05-05 20:51 784K
20260505T18Z_MSC_RDPS_WindV_IsbL-1015_RLatLon0.09_PT039H.grib2 2026-05-05 20:51 777K